Powrót do katalogu

FENGYUN 1C DEB

AktywnySSO
NORAD 38147·DEBRIS·🇨🇳 China

Wystrzelony May 10, 1999 z Taiyuan Satellite Launch Center

Loading…

Następne Przeloty (najbliższe 24 godziny)

TLE

Starzejące sięSource: Space-Track

Epoka: Sep 6, 2026, 21:29 UTC

1 38147U 99025EQU 26249.89556034  .00000622  00000-0  28583-3 0  9990
2 38147  98.5515 261.8496 0049067 237.9786 121.6621 14.24089608642038

Śledź FENGYUN 1C DEB w czasie rzeczywistym z AllMySat

Download on the App Store